GOES 13

Last updated on Dec. 5, 2020, 6:13 a.m. UTC

1 29155U 06018A   20339.76334038  .00000053  00000-0  00000-0 0  9996
2 29155   0.2553 109.3551 0008063 119.7295 181.2028  1.00270571 23105
UTC
Height (km)
Latitude
Longitude
Inclination
Orbital Period
UTC large
Height (km)
Speed (km/s)
/
Latitude / Longitude
Inclination (degrees)
Orbital Period (minutes)
Azimuth
Elevation
Range (km)
Doppler Factor
iOS Compass Heading
iOS Angle

Next 30 passes for location: Hong Kong

Rise time Rise Azimuth (degrees) Set time Set Azimuth (degrees) Duration Max altitude (degrees)

No matching passes for this satellites